User: anonymous   Login
Location: Vigo di Fassa
(46.4167°N, 11.6667°E)
Time: 17:43:35
(UTC+00:00)
Language:

Meteor 1-5 Rocket - Orbit

View from above orbital plane
View from above orbital plane
View from above satellite
View from above satellite

Ground track
Ground track

The orbit data is extracted from the following two-line orbital elements,

1 04420U 70047B   21129.23071366  .00000060  00000-0  24672-4 0  9992
2 04420  81.2333  22.0947 0087559 165.3075 195.0674 14.12096597618772
Epoch (UTC): 09 May 2021 05:32:13
Eccentricity: 0.0087559
inclination: 81.2333°
perigee height: 789 km
apogee height: 915 km
right ascension of ascending node: 22.0947°
argument of perigee: 165.3075°
revolutions per day: 14.12096597
mean anomaly at epoch: 195.0674°
orbit number at epoch: 61877

The dashed part of the orbit path shows where the satellite is in the earth's shadow,  

DLR